This is the latest recevied weather packets stored in our database for station/object KB2SKP. If no packets are shown the sender has not sent any weather packets the latest 10 day(s).
| Time | Temp. | Humidity | Pressure | Rain* | Wind** | Luminosity | Snow |
|---|---|---|---|---|---|---|---|
| 1777752665 | 14.44° C | 50% | 1007.6 hPa | 0 mm | - | 103 W/m² | - |
| 1777752361 | 13.89° C | 54% | 1007.9 hPa | 0 mm | - | 120 W/m² | - |
| 1777752058 | 13.89° C | 51% | 1007.7 hPa | 0 mm | - | 116 W/m² | - |
| 1777751756 | 13.89° C | 51% | 1007.6 hPa | 0 mm | - | 86 W/m² | - |
| 1777751452 | 14.44° C | 51% | 1007.8 hPa | 0 mm | - | 133 W/m² | - |
| 1777751149 | 14.44° C | 51% | 1007.9 hPa | 0 mm | - | 126 W/m² | - |
| 1777750845 | 14.44° C | 52% | 1007.9 hPa | 0 mm | - | 123 W/m² | - |
| 1777750542 | 14.44° C | 52% | 1007.9 hPa | 0 mm | - | 123 W/m² | - |
| 1777750239 | 14.44° C | 50% | 1008 hPa | 0 mm | - | 114 W/m² | - |
| 1777749934 | 14.44° C | 51% | 1008.1 hPa | 0 mm | - | 130 W/m² | - |
| 1777749632 | 14.44° C | 51% | 1008.2 hPa | 0 mm | - | 107 W/m² | - |
| 1777749329 | 14.44° C | 51% | 1008.4 hPa | 0 mm | - | 131 W/m² | - |
| 1777749027 | 13.89° C | 51% | 1008.3 hPa | 0 mm | - | 143 W/m² | - |
| 1777748724 | 14.44° C | 49% | 1008.3 hPa | 0 mm | - | 120 W/m² | - |
| 1777748421 | 14.44° C | 49% | 1008.4 hPa | 0 mm | - | 126 W/m² | - |
| 1777748116 | 14.44° C | 49% | 1008.4 hPa | 0 mm | - | 152 W/m² | - |
| 1777747813 | 14.44° C | 49% | 1008.6 hPa | 0 mm | - | 141 W/m² | - |
| 1777747508 | 15° C | 49% | 1008.9 hPa | 0 mm | - | 147 W/m² | - |
| 1777747205 | 15° C | 49% | 1008.7 hPa | 0 mm | - | 129 W/m² | - |
| 1777746901 | 15° C | 49% | 1008.9 hPa | 0 mm | - | 187 W/m² | - |
| 1777746596 | 14.44° C | 47% | 1008.9 hPa | 0 mm | - | 61 W/m² | - |
| 1777746292 | 15° C | 45% | 1008.9 hPa | 0 mm | - | 123 W/m² | - |
| 1777745988 | 14.44° C | 49% | 1009.2 hPa | 0 mm | - | 180 W/m² | - |
| 1777745687 | 13.89° C | 44% | 1009.3 hPa | 0 mm | - | 178 W/m² | - |
| 1777745385 | 13.89° C | 44% | 1009.4 hPa | 0 mm | - | 142 W/m² | - |
* Rain latest hour (hover to see other rain measurements)
** Current wind speed in m/s (hover to see current wind gust speed)